QPF
0.00 0.00 0.00 0.00 0.00 0.00 0.00 0.00 0.00 0.00 0.00 0.00 0.00 0.00 0.00 0.00 0.00 0.00 0.00 0.00 0.00 0.00 0.00 0.00 0.00 0.00 0.00 0.00 0.00 0.00 0.00 0.00 0.00 0.00 0.00 0.00 0.00 0.00 0.00 0.00 0.00 0.00 0.00 0.00 0.00 0.00 0.00
0.00 0.00 0.00 0.00 0.00 0.00 0.00 0.00 0.00 0.00 0.00 0.00 0.00 0.00 0.00 0.00 0.00 0.00 0.00 0.00 0.00 0.00 0.00 0.00 0.00 0.00 0.00 0.00 0.00 0.00 0.00 0.00 0.00 0.00 0.00 0.00 0.00 0.00 0.00 0.00 0.00 0.00 0.00 0.00 0.00 0.00 0.00
0.00 0.00 0.00 0.00 0.00 0.00 0.00 0.00 0.00 0.00 0.00 0.00 0.00 0.00 0.00 0.00 0.00 0.00 0.00 0.00 0.00 0.00 0.00 0.00 0.00 0.00 0.00 0.00 0.00 0.00 0.00 0.00 0.00 0.00 0.00 0.00 0.00 0.00 0.00 0.00 0.00 0.00 0.00 0.00 0.00 0.00 0.00
0.00 0.00 0.00 0.00 0.00 0.00 0.00 0.00 0.00 0.00 0.00 0.00 0.00 0.00 0.00 0.00 0.00 0.00 0.00 0.00 0.00 0.00 0.00 0.00 0.00 0.00 0.00 0.00 0.00 0.00 0.00 0.00 0.00 0.00 0.00 0.00 0.00 0.00 0.00 0.00 0.00 0.00 0.00 0.00 0.00 0.00 0.00
0.00 0.00 0.00 0.00 0.00 0.00 0.00 0.00 0.00 0.00 0.00 0.00 0.00 0.00 0.00 0.00 0.00 0.00 0.00 0.00 0.00 0.00 0.00 0.00 0.00 0.00 0.00 0.00 0.00 0.00 0.00 0.00 0.00 0.00 0.00 0.00 0.00 0.00 0.00 0.00 0.00 0.00 0.00 0.00 0.00 0.00 0.00
0.00 0.00 0.00 0.00 0.00 0.00 0.00 0.00 0.00 0.00 0.00 0.00 0.00 0.00 0.00 0.00 0.00 0.00 0.00 0.00 0.00 0.00 0.00 0.00 0.00 0.00 0.00 0.00 0.00 0.00 0.00 0.00 0.00 0.00 0.00 0.00 0.00 0.00 0.00 0.00 0.00 0.00 0.00 0.00 0.00 0.00 0.00
0.00 0.00 0.00 0.00 0.00 0.00 0.00 0.00 0.00 0.00 0.00 0.00 0.00 0.00 0.00 0.00 0.00 0.00 0.00 0.00 0.00 0.00 0.00 0.00 0.00 0.00 0.00 0.00 0.00 0.00 0.00 0.00 0.00 0.00 0.00 0.00 0.00 0.00 0.00 0.00 0.00 0.00 0.00 0.00 0.00 0.00 0.00
0.00 0.00 0.00 0.00 0.00 0.00 0.00 0.00 0.00 0.00 0.00 0.00 0.00 0.00 0.00 0.00 0.00 0.00 0.00 0.00 0.00 0.00 0.00 0.00 0.00 0.00 0.00 0.00 0.00 0.00 0.00 0.00 0.00 0.00 0.00 0.00 0.00 0.00 0.00 0.00 0.00 0.00 0.00 0.00 0.00 0.00 0.00
0.00 0.00 0.00 0.00 0.00 0.00 0.00 0.00 0.00 0.00 0.00 0.00 0.00 0.00 0.00 0.00 0.00 0.00 0.00 0.00 0.00 0.00 0.00 0.00 0.00 0.00 0.00 0.00 0.00 0.00 0.00 0.00 0.00 0.00 0.00 0.00 0.00 0.00 0.00 0.00 0.00 0.00 0.00 0.00 0.00 0.00 0.00
0.00 0.00 0.00 0.00 0.00 0.00 0.00 0.00 0.00 0.00 0.00 0.00 0.00 0.00 0.00 0.00 0.00 0.00 0.00 0.00 0.00 0.00 0.00 0.00 0.00 0.00 0.00 0.00 0.00 0.00 0.00 0.00 0.00 0.00 0.00 0.00 0.00 0.00 0.00 0.00 0.00 0.00 0.00 0.00 0.00 0.00 0.00
0.00 0.00 0.00 0.00 0.00 0.00 0.00 0.00 0.00 0.00 0.00 0.00 0.00 0.00 0.00 0.00 0.00 0.00 0.00 0.00 0.00 0.00 0.00 0.00 0.00 0.00 0.00 0.00 0.00 0.00 0.00 0.00 0.00 0.00 0.00 0.00 0.00 0.00 0.00 0.00 0.00 0.00 0.00 0.00 0.00 0.00 0.00
0.01 0.01 0.00 0.00 0.00 0.00 0.00 0.00 0.00 0.00 0.00 0.00 0.00 0.00 0.00 0.00 0.00 0.00 0.00 0.00 0.00 0.00 0.00 0.00 0.00 0.00 0.00 0.00 0.00 0.00 0.00 0.00 0.00 0.00 0.00 0.00 0.00 0.00 0.00 0.00 0.00 0.00 0.00 0.00 0.00 0.00 0.00
0.01 0.00 0.00 0.00 0.00 0.00 0.00 0.00 0.00 0.00 0.00 0.00 0.00 0.01 0.00 0.00 0.00 0.00 0.00 0.00 0.00 0.00 0.00 0.00 0.00 0.00 0.00 0.00 0.00 0.00 0.00 0.00 0.00 0.00 0.00 0.00 0.00 0.00 0.00 0.00 0.00 0.00 0.00 0.00 0.00 0.00 0.00
0.01 0.00 0.00 0.00 0.00 0.00 0.00 0.00 0.00 0.00 0.00 0.00 0.00 0.00 0.00 0.00 0.00 0.00 0.00 0.00 0.00 0.00 0.00 0.00 0.00 0.00 0.00 0.00 0.00 0.00 0.00 0.00 0.00 0.00 0.00 0.00 0.00 0.00 0.00 0.00 0.00 0.00 0.00 0.00 0.00 0.00 0.00
0.01 0.00 0.00 0.00 0.00 0.00 0.00 0.00 0.00 0.00 0.00 0.00 0.00 0.00 0.00 0.00 0.00 0.00 0.00 0.00 0.00 0.00 0.00 0.00 0.00 0.00 0.00 0.00 0.00 0.00 0.00 0.00 0.00 0.00 0.00 0.00 0.00 0.00 0.00 0.00 0.00 0.00 0.00 0.00 0.00 0.00 0.00
0.00 0.01 0.00 0.00 0.00 0.00 0.00 0.00 0.00 0.00 0.00 0.00 0.00 0.00 0.00 0.00 0.00 0.00 0.00 0.00 0.00 0.00 0.00 0.00 0.00 0.00 0.00 0.00 0.00 0.00 0.00 0.00 0.00 0.00 0.00 0.00 0.00 0.00 0.00 0.00 0.00 0.00 0.00 0.00 0.00 0.00 0.00
0.00 0.00 0.00 0.00 0.00 0.00 0.00 0.00 0.00 0.00 0.00 0.00 0.00 0.00 0.00 0.00 0.00 0.00 0.00 0.00 0.00 0.00 0.00 0.00 0.00 0.00 0.00 0.00 0.00 0.00 0.00 0.00 0.00 0.00 0.00 0.00 0.00 0.00 0.00 0.00 0.00 0.00 0.00 0.00 0.00 0.00 0.00
0.00 0.00 0.00 0.00 0.00 0.00 0.00 0.00 0.00 0.00 0.00 0.00 0.00 0.00 0.00 0.00 0.00 0.00 0.00 0.00 0.00 0.00 0.00 0.00 0.00 0.00 0.00 0.00 0.00 0.00 0.00 0.00 0.00 0.00 0.00 0.00 0.00 0.00 0.00 0.00 0.00 0.00 0.00 0.00 0.00 0.00 0.00
0.00 0.00 0.00 0.00 0.00 0.00 0.00 0.00 0.00 0.00 0.00 0.00 0.00 0.00 0.00 0.00 0.00 0.00 0.00 0.00 0.00 0.00 0.00 0.00 0.00 0.00 0.00 0.00 0.00 0.00 0.00 0.00 0.00 0.00 0.00 0.00 0.00 0.00 0.00 0.00 0.00 0.00 0.00 0.00 0.00 0.00 0.00
0.00 0.00 0.00 0.00 0.00 0.00 0.00 0.00 0.00 0.00 0.00 0.00 0.00 0.00 0.00 0.00 0.00 0.00 0.00 0.00 0.00 0.00 0.00 0.00 0.00 0.00 0.00 0.00 0.00 0.00 0.00 0.00 0.00 0.00 0.00 0.00 0.00 0.00 0.00 0.00 0.00 0.00 0.00 0.00 0.00 0.00 0.00
0.00 0.00 0.00 0.00 0.00 0.00 0.00 0.00 0.00 0.00 0.00 0.00 0.00 0.00 0.00 0.00 0.00 0.00 0.00 0.00 0.00 0.00 0.00 0.00 0.00 0.00 0.00 0.00 0.00 0.00 0.00 0.00 0.00 0.00 0.00 0.00 0.00 0.00 0.00 0.00 0.00 0.00 0.00 0.00 0.00 0.00 0.00
0.00 0.00 0.00 0.00 0.00 0.00 0.00 0.00 0.00 0.00 0.00 0.00 0.00 0.00 0.00 0.00 0.00 0.00 0.00 0.00 0.00 0.00 0.00 0.00 0.00 0.00 0.00 0.00 0.00 0.00 0.00 0.00 0.00 0.00 0.00 0.00 0.00 0.00 0.00 0.00 0.00 0.00 0.00 0.00 0.00 0.00 0.00
0.00 0.00 0.00 0.00 0.00 0.00 0.00 0.00 0.00 0.00 0.00 0.00 0.00 0.00 0.00 0.00 0.00 0.00 0.00 0.00 0.00 0.00 0.00 0.00 0.00 0.00 0.00 0.00 0.00 0.00 0.00 0.00 0.00 0.00 0.00 0.00 0.00 0.00 0.00 0.00 0.00 0.00 0.00 0.00 0.00 0.00 0.00
0.00 0.00 0.00 0.00 0.00 0.00 0.00 0.00 0.00 0.00 0.00 0.00 0.00 0.00 0.00 0.00 0.00 0.00 0.00 0.00 0.00 0.00 0.00 0.00 0.00 0.00 0.00 0.00 0.00 0.00 0.00 0.00 0.00 0.00 0.00 0.00 0.00 0.00 0.00 0.00 0.00 0.00 0.00 0.00 0.00 0.00 0.00
0.00 0.00 0.00 0.00 0.00 0.00 0.00 0.00 0.00 0.00 0.00 0.00 0.00 0.00 0.00 0.00 0.00 0.00 0.00 0.00 0.00 0.00 0.00 0.00 0.00 0.00 0.00 0.00 0.00 0.00 0.00 0.00 0.00 0.00 0.00 0.00 0.00 0.00 0.00 0.00 0.00 0.00 0.00 0.00 0.00 0.00 0.00
0.00 0.00 0.00 0.00 0.00 0.00 0.00 0.00 0.00 0.00 0.00 0.00 0.00 0.00 0.00 0.00 0.00 0.00 0.00 0.00 0.00 0.00 0.00 0.00 0.00 0.00 0.00 0.00 0.00 0.00 0.00 0.00 0.00 0.00 0.00 0.00 0.00 0.00 0.00 0.00 0.00 0.00 0.00 0.00 0.00 0.00 0.00
0.00 0.00 0.00 0.00 0.00 0.00 0.00 0.00 0.00 0.00 0.00 0.00 0.00 0.00 0.00 0.00 0.00 0.00 0.00 0.00 0.00 0.00 0.00 0.00 0.00 0.00 0.00 0.00 0.00 0.00 0.00 0.00 0.00 0.00 0.00 0.00 0.00 0.00 0.00 0.00 0.00 0.00 0.00 0.00 0.00 0.00 0.00
0.00 0.00 0.00 0.00 0.01 0.01 0.01 0.00 0.00 0.00 0.00 0.00 0.00 0.00 0.00 0.00 0.00 0.00 0.00 0.00 0.00 0.00 0.00 0.00 0.00 0.00 0.00 0.00 0.00 0.00 0.00 0.00 0.00 0.00 0.00 0.00 0.00 0.00 0.00 0.00 0.00 0.00 0.00 0.00 0.00 0.00 0.00
0.00 0.01 0.01 0.01 0.01 0.01 0.01 0.00 0.00 0.00 0.00 0.00 0.00 0.00 0.00 0.00 0.00 0.00 0.00 0.00 0.00 0.00 0.00 0.00 0.00 0.00 0.00 0.00 0.00 0.00 0.00 0.00 0.00 0.00 0.00 0.00 0.00 0.00 0.00 0.00 0.00 0.00 0.00 0.00 0.00 0.00 0.00
MSLP
1019.99 1019.80 1019.57 1019.37 1019.25 1019.00 1018.76 1018.58 1018.26 1017.95 1017.60 1017.25 1017.01 1016.68 1016.33 1015.97 1015.60 1015.06 1014.60 1014.25 1013.93 1013.63 1013.37 1013.07 1012.74 1012.39 1011.85 1010.82 1008.99 1008.20 1007.81 1008.32 1008.78 1008.54 1008.21 1008.18 1008.17 1008.02 1007.73 1007.76 1007.72 1007.41 1006.15 1005.66 1005.25 1005.66 1005.83
1019.88 1019.72 1019.53 1019.35 1019.19 1018.96 1018.70 1018.39 1018.02 1017.76 1017.47 1017.17 1016.85 1016.53 1016.20 1015.86 1015.44 1014.94 1014.43 1014.02 1013.86 1013.54 1013.24 1012.94 1012.69 1012.41 1011.64 1010.10 1008.61 1008.43 1008.26 1008.52 1008.37 1008.42 1008.13 1008.04 1007.77 1007.72 1007.44 1007.36 1007.44 1006.90 1006.10 1005.51 1005.17 1005.35 1005.83
1019.94 1019.71 1019.53 1019.25 1018.96 1018.72 1018.52 1018.33 1017.97 1017.52 1017.13 1016.91 1016.56 1016.19 1015.85 1015.58 1015.24 1014.92 1014.50 1013.94 1013.54 1013.33 1013.11 1012.90 1012.63 1012.33 1011.25 1009.21 1008.58 1008.77 1008.75 1008.57 1008.57 1008.29 1008.00 1008.04 1007.85 1007.80 1007.54 1006.94 1006.93 1006.59 1006.06 1005.47 1005.40 1005.62 1005.84
1019.89 1019.67 1019.44 1019.14 1018.83 1018.59 1018.29 1018.13 1017.79 1017.44 1017.09 1016.74 1016.46 1016.13 1015.76 1015.35 1014.96 1014.63 1014.24 1013.87 1013.32 1012.92 1012.71 1012.71 1012.57 1012.13 1009.98 1008.54 1008.67 1008.71 1008.60 1008.43 1008.56 1008.42 1008.25 1008.02 1008.00 1007.83 1007.58 1007.26 1006.82 1006.42 1006.24 1005.72 1005.77 1005.84 1006.14
1019.77 1019.55 1019.34 1019.12 1018.84 1018.57 1018.31 1018.01 1017.69 1017.41 1017.03 1016.67 1016.22 1015.73 1015.41 1015.07 1014.68 1014.32 1013.94 1013.50 1012.88 1012.44 1012.42 1012.50 1012.31 1011.46 1009.01 1008.15 1008.19 1007.91 1007.91 1007.76 1008.12 1008.35 1008.38 1008.21 1008.07 1007.86 1007.59 1007.05 1006.81 1006.88 1006.54 1006.36 1005.86 1005.99 1006.10
1019.73 1019.48 1019.34 1019.10 1018.75 1018.48 1018.13 1017.73 1017.39 1017.08 1016.82 1016.50 1016.05 1015.61 1015.15 1014.67 1014.32 1013.92 1013.46 1013.08 1012.71 1012.49 1012.46 1012.25 1011.80 1011.24 1008.64 1008.15 1007.75 1007.68 1007.80 1007.69 1007.60 1007.89 1008.16 1008.24 1008.04 1007.68 1007.54 1007.13 1006.70 1006.96 1006.84 1006.84 1006.53 1005.92 1005.92
1019.63 1019.47 1019.29 1019.02 1018.73 1018.34 1017.96 1017.57 1017.18 1016.79 1016.40 1016.08 1015.80 1015.45 1014.97 1014.42 1013.94 1013.64 1013.03 1012.74 1012.96 1012.60 1011.95 1010.86 1010.46 1009.76 1008.80 1008.12 1007.76 1007.37 1007.46 1007.37 1007.49 1007.63 1007.68 1008.12 1007.66 1007.18 1007.02 1007.18 1007.06 1007.01 1006.98 1006.72 1006.69 1006.07 1005.61
1019.65 1019.42 1019.18 1018.92 1018.65 1018.27 1017.91 1017.48 1017.07 1016.62 1016.18 1015.79 1015.40 1014.95 1014.54 1014.19 1013.78 1013.24 1013.03 1012.01 1012.05 1012.10 1011.18 1010.27 1009.89 1009.52 1008.98 1008.55 1007.83 1007.32 1007.37 1007.28 1007.49 1007.62 1008.07 1008.15 1007.42 1007.39 1007.46 1007.45 1007.11 1006.87 1006.76 1006.45 1006.38 1006.07 1006.02
1019.59 1019.30 1019.02 1018.80 1018.45 1018.12 1017.73 1017.31 1016.85 1016.46 1016.04 1015.60 1015.17 1014.76 1014.25 1013.60 1013.15 1012.83 1012.49 1011.90 1011.91 1011.78 1010.94 1009.70 1009.22 1008.80 1008.42 1008.34 1007.57 1007.16 1007.25 1007.20 1007.50 1007.77 1007.90 1007.72 1007.57 1007.63 1007.50 1007.17 1006.95 1006.74 1006.73 1006.63 1006.45 1006.11 1005.76
1019.55 1019.21 1018.93 1018.60 1018.28 1017.97 1017.61 1017.24 1016.80 1016.34 1015.82 1015.34 1014.90 1014.49 1014.11 1013.53 1013.27 1012.94 1012.17 1011.94 1011.78 1011.57 1010.15 1009.22 1008.54 1008.05 1008.19 1007.91 1007.43 1007.07 1007.03 1007.04 1007.62 1007.63 1008.01 1007.79 1007.67 1007.59 1007.41 1007.04 1006.99 1006.38 1006.65 1006.70 1006.52 1006.15 1005.60
1019.43 1019.15 1018.75 1018.40 1018.07 1017.77 1017.46 1017.06 1016.59 1016.06 1015.58 1015.08 1014.66 1014.35 1014.04 1013.83 1013.33 1012.48 1012.12 1011.70 1011.45 1011.14 1009.25 1008.26 1007.81 1007.69 1007.84 1007.60 1007.24 1007.08 1007.09 1006.98 1007.20 1007.61 1007.99 1007.49 1007.49 1007.42 1007.04 1006.70 1006.88 1006.39 1006.68 1006.81 1006.56 1006.23 1005.95
1019.40 1019.01 1018.63 1018.27 1017.89 1017.54 1017.15 1016.72 1016.25 1015.72 1015.23 1014.73 1014.36 1014.11 1013.89 1013.76 1013.51 1011.92 1011.75 1011.44 1011.07 1010.11 1008.51 1007.53 1007.38 1007.44 1007.31 1007.19 1006.93 1006.84 1006.85 1007.01 1007.50 1007.57 1007.71 1007.54 1007.57 1007.19 1006.69 1006.59 1006.61 1006.77 1006.73 1006.78 1006.82 1006.31 1005.49
1019.32 1018.91 1018.55 1018.19 1017.77 1017.30 1016.85 1016.35 1015.87 1015.33 1014.77 1014.30 1013.95 1013.86 1013.91 1013.49 1012.40 1011.87 1011.53 1010.84 1010.08 1008.88 1008.33 1007.68 1007.22 1007.02 1006.84 1006.78 1006.70 1006.56 1006.58 1006.89 1007.01 1007.37 1007.25 1007.32 1006.92 1006.71 1006.75 1006.65 1006.81 1006.73 1006.35 1005.92 1005.88 1005.80 1005.37
1019.26 1018.84 1018.43 1018.04 1017.62 1017.15 1016.61 1016.05 1015.49 1014.91 1014.38 1013.96 1013.57 1013.23 1013.22 1012.76 1012.26 1011.95 1010.82 1010.31 1009.35 1008.92 1008.06 1007.65 1007.29 1007.02 1006.82 1006.78 1006.73 1006.62 1006.64 1006.67 1007.27 1007.15 1007.19 1006.80 1006.32 1006.25 1006.20 1005.99 1005.90 1006.18 1005.92 1005.57 1005.35 1005.59 1005.35
1019.24 1018.80 1018.33 1017.90 1017.44 1016.96 1016.30 1015.67 1015.02 1014.42 1013.85 1013.42 1013.12 1012.93 1012.58 1012.01 1012.01 1012.00 1010.77 1009.88 1009.36 1008.82 1008.18 1007.63 1007.26 1006.89 1006.85 1006.83 1006.69 1006.70 1006.69 1006.50 1006.51 1006.73 1006.60 1006.53 1006.18 1005.95 1005.91 1005.76 1005.78 1006.16 1006.01 1005.81 1005.66 1006.62 1005.77
1019.24 1018.73 1018.33 1017.84 1017.31 1016.79 1016.14 1015.35 1014.66 1013.96 1013.41 1013.02 1012.58 1012.02 1012.08 1012.03 1011.99 1011.36 1010.52 1010.21 1009.63 1009.03 1008.32 1007.85 1007.21 1007.13 1006.83 1006.73 1006.57 1006.52 1006.59 1006.52 1006.50 1006.68 1006.80 1006.33 1006.06 1005.55 1005.49 1005.66 1006.02 1005.65 1005.79 1005.99 1005.82 1005.50 1005.11
1019.31 1018.87 1018.44 1017.87 1017.29 1016.75 1015.98 1015.21 1014.40 1013.56 1012.92 1012.62 1012.09 1011.58 1011.95 1011.97 1011.80 1010.92 1010.50 1010.29 1009.70 1008.76 1008.52 1007.90 1007.38 1007.15 1007.03 1006.81 1006.71 1006.58 1006.58 1006.61 1006.59 1006.74 1006.82 1006.62 1006.39 1005.66 1005.45 1004.98 1004.97 1005.77 1005.59 1005.97 1005.75 1005.60 1004.61
1019.43 1018.95 1018.47 1017.89 1017.37 1016.67 1015.94 1015.08 1014.10 1013.29 1012.44 1012.31 1011.71 1011.48 1011.83 1011.77 1011.45 1011.82 1010.98 1010.62 1010.03 1008.84 1008.36 1008.00 1007.68 1007.27 1007.03 1006.98 1006.74 1006.70 1006.56 1006.54 1006.76 1006.63 1006.67 1006.89 1006.36 1005.54 1004.95 1005.21 1005.28 1005.00 1004.84 1004.97 1004.94 1005.47 1005.39
1019.55 1019.09 1018.59 1018.02 1017.43 1016.74 1015.89 1015.01 1014.07 1013.15 1012.59 1012.19 1012.02 1012.05 1011.69 1011.44 1011.34 1011.38 1010.99 1010.42 1009.94 1009.08 1008.56 1008.11 1007.74 1007.55 1007.40 1007.22 1007.32 1007.12 1006.90 1006.81 1006.92 1006.76 1006.83 1006.89 1006.52 1005.60 1004.97 1005.43 1005.57 1005.08 1005.03 1005.03 1005.11 1004.98 1004.60
1019.66 1019.15 1018.57 1018.00 1017.44 1016.69 1015.85 1015.03 1014.11 1013.28 1012.77 1012.56 1012.25 1012.19 1011.96 1011.85 1012.13 1011.51 1011.08 1010.46 1009.84 1009.42 1009.00 1008.70 1008.26 1007.86 1007.76 1007.72 1007.82 1007.53 1007.20 1006.96 1007.00 1007.04 1007.18 1007.11 1006.68 1005.79 1005.41 1005.56 1005.81 1005.33 1005.23 1005.25 1004.55 1004.12 1004.13
1019.90 1019.41 1018.88 1018.31 1017.56 1016.79 1016.04 1015.09 1014.22 1013.40 1012.90 1012.82 1012.87 1013.20 1013.16 1012.49 1012.24 1011.85 1011.58 1011.12 1010.37 1009.72 1009.33 1009.03 1008.62 1008.66 1008.47 1008.14 1008.05 1007.84 1007.64 1007.29 1007.12 1007.31 1007.42 1007.22 1006.65 1006.77 1006.22 1006.14 1005.98 1005.58 1005.36 1005.26 1004.77 1004.16 1003.54
1020.07 1019.58 1019.05 1018.48 1017.85 1017.14 1016.40 1015.57 1014.44 1013.54 1012.87 1012.91 1013.74 1013.72 1013.73 1013.22 1012.84 1012.34 1011.98 1011.30 1010.90 1010.52 1010.12 1009.29 1009.18 1009.12 1008.90 1008.61 1008.50 1008.30 1008.21 1007.92 1007.49 1007.34 1007.32 1007.53 1007.14 1007.23 1006.60 1006.43 1006.37 1005.76 1005.38 1005.07 1004.61 1004.27 1003.79
1020.28 1019.84 1019.33 1018.79 1018.25 1017.64 1016.92 1016.16 1015.29 1014.05 1012.81 1013.87 1015.03 1014.73 1013.98 1013.81 1013.05 1012.57 1012.04 1011.76 1011.47 1011.36 1010.50 1010.15 1010.00 1009.77 1009.39 1009.14 1009.03 1008.79 1008.68 1008.32 1008.03 1008.22 1007.88 1007.87 1007.41 1007.37 1006.68 1006.65 1006.38 1005.31 1004.49 1004.25 1003.82 1003.50 1003.02
1020.40 1020.00 1019.53 1019.04 1018.52 1017.99 1017.42 1016.81 1016.21 1015.54 1015.02 1015.09 1015.69 1015.19 1014.23 1013.71 1013.38 1012.79 1012.40 1012.27 1011.89 1011.75 1011.37 1010.65 1010.52 1010.37 1010.00 1009.70 1009.11 1008.87 1008.51 1008.17 1008.16 1007.93 1008.16 1007.99 1007.98 1007.61 1006.92 1006.97 1005.74 1004.53 1004.55 1004.24 1003.65 1002.96 1002.99
1020.49 1020.13 1019.73 1019.33 1018.88 1018.37 1017.83 1017.31 1016.85 1016.32 1015.90 1015.66 1016.16 1015.62 1014.85 1013.93 1013.63 1012.94 1012.69 1012.54 1012.30 1012.13 1011.89 1011.24 1010.73 1010.52 1010.42 1009.93 1009.22 1008.59 1008.02 1007.81 1007.30 1007.71 1007.91 1008.04 1008.03 1007.58 1007.33 1006.39 1005.22 1004.78 1004.20 1003.90 1003.45 1002.90 1003.26
1020.43 1020.13 1019.80 1019.44 1019.03 1018.59 1018.15 1017.72 1017.35 1017.01 1016.65 1016.43 1016.60 1016.47 1015.46 1014.63 1013.46 1013.12 1012.88 1012.83 1012.45 1012.23 1011.94 1011.43 1011.18 1010.94 1010.51 1009.97 1009.47 1008.72 1007.97 1007.66 1007.56 1008.03 1008.53 1008.45 1008.51 1008.06 1007.74 1006.47 1004.94 1004.09 1003.56 1004.07 1003.91 1003.11 1003.59
1020.27 1020.02 1019.77 1019.49 1019.15 1018.79 1018.45 1018.12 1017.78 1017.49 1017.16 1016.97 1016.94 1016.93 1016.02 1015.06 1013.75 1013.62 1013.06 1012.70 1012.69 1012.58 1012.31 1012.13 1011.71 1011.06 1010.90 1010.09 1009.57 1008.92 1008.16 1008.03 1007.65 1007.52 1007.95 1008.06 1008.12 1007.59 1006.99 1006.27 1005.07 1004.40 1004.37 1004.59 1004.17 1003.91 1004.17
1020.18 1019.98 1019.72 1019.48 1019.22 1018.92 1018.63 1018.37 1018.06 1017.80 1017.48 1017.24 1017.24 1017.19 1016.62 1015.68 1014.25 1013.82 1013.33 1012.93 1012.90 1012.71 1012.36 1012.68 1012.40 1011.96 1011.40 1010.69 1009.94 1009.04 1008.69 1008.14 1007.85 1007.11 1007.00 1006.92 1007.07 1006.94 1006.96 1006.10 1004.88 1004.33 1004.80 1004.54 1004.10 1004.39 1004.61
1020.01 1019.88 1019.65 1019.41 1019.16 1018.90 1018.64 1018.40 1018.22 1017.98 1017.73 1017.56 1017.33 1017.45 1017.43 1016.64 1014.95 1014.53 1013.69 1013.25 1012.88 1012.68 1012.86 1013.04 1012.69 1012.33 1011.71 1011.19 1010.67 1010.04 1009.15 1008.73 1008.05 1007.12 1007.32 1006.95 1006.32 1006.04 1006.12 1004.95 1004.55 1004.50 1004.18 1004.46 1004.62 1004.84 1004.86
Thickness
5693 5699 5704 5709 5713 5718 5722 5726 5731 5736 5741 5746 5750 5755 5761 5766 5771 5777 5783 5787 5791 5796 5799 5802 5805 5809 5816 5818 5825 5846 5850 5846 5844 5844 5837 5833 5827 5824 5815 5819 5819 5814 5833 5842 5849 5843 5839
5691 5696 5702 5707 5711 5716 5721 5726 5731 5736 5741 5745 5750 5755 5760 5765 5771 5777 5783 5788 5791 5795 5798 5802 5805 5808 5813 5809 5840 5842 5845 5844 5843 5839 5835 5836 5831 5834 5825 5821 5813 5826 5832 5836 5845 5844 5840
5686 5692 5698 5705 5711 5716 5721 5725 5731 5737 5742 5746 5751 5757 5762 5766 5770 5775 5780 5787 5792 5795 5798 5801 5804 5807 5809 5822 5840 5839 5840 5840 5842 5840 5831 5839 5840 5828 5829 5821 5830 5830 5821 5834 5837 5837 5833
5682 5689 5695 5702 5708 5714 5721 5725 5731 5736 5741 5746 5750 5755 5760 5766 5771 5776 5781 5786 5792 5796 5799 5800 5802 5806 5812 5838 5838 5838 5840 5838 5841 5842 5839 5843 5842 5830 5824 5830 5825 5816 5820 5807 5829 5832 5832
5677 5684 5691 5698 5705 5711 5717 5723 5729 5734 5739 5745 5751 5757 5761 5766 5771 5777 5782 5787 5793 5797 5798 5799 5803 5807 5813 5840 5832 5842 5844 5836 5837 5836 5837 5840 5835 5820 5821 5809 5803 5805 5790 5796 5813 5831 5826
5671 5679 5687 5694 5701 5708 5715 5722 5729 5734 5739 5744 5750 5756 5762 5768 5773 5778 5784 5788 5791 5794 5796 5799 5802 5800 5824 5820 5833 5837 5841 5840 5831 5828 5821 5819 5816 5809 5805 5802 5779 5784 5788 5792 5793 5822 5824
5665 5673 5681 5689 5697 5705 5713 5720 5728 5734 5740 5745 5750 5755 5761 5768 5774 5778 5785 5790 5792 5791 5794 5802 5804 5805 5814 5827 5835 5832 5837 5833 5828 5819 5802 5805 5800 5794 5803 5803 5804 5800 5792 5790 5801 5822 5820
5658 5666 5675 5683 5692 5700 5709 5717 5724 5732 5739 5745 5751 5757 5763 5768 5773 5779 5783 5793 5791 5791 5790 5801 5802 5804 5813 5819 5811 5822 5833 5816 5809 5794 5797 5794 5789 5804 5803 5800 5800 5800 5793 5795 5805 5816 5814
5651 5659 5669 5677 5687 5696 5705 5714 5722 5730 5737 5743 5750 5756 5762 5770 5775 5780 5785 5789 5789 5790 5785 5796 5802 5803 5809 5813 5808 5813 5822 5812 5799 5789 5789 5785 5795 5798 5795 5793 5793 5797 5791 5790 5792 5805 5813
5645 5653 5662 5672 5681 5691 5700 5709 5718 5726 5734 5742 5748 5754 5760 5768 5774 5775 5783 5784 5787 5788 5780 5788 5794 5803 5806 5807 5802 5820 5822 5812 5794 5788 5783 5787 5796 5791 5787 5787 5794 5787 5801 5796 5794 5793 5783
5641 5648 5656 5666 5676 5686 5695 5705 5714 5724 5732 5740 5746 5752 5757 5761 5769 5777 5779 5782 5785 5785 5755 5790 5791 5812 5802 5798 5803 5804 5818 5809 5789 5784 5784 5784 5783 5779 5781 5790 5793 5793 5798 5794 5792 5789 5788
5637 5644 5652 5661 5671 5681 5692 5702 5712 5721 5730 5738 5744 5749 5754 5758 5760 5774 5775 5779 5781 5764 5742 5777 5788 5785 5786 5792 5794 5801 5802 5807 5798 5784 5783 5782 5791 5790 5793 5796 5797 5798 5791 5784 5780 5784 5774
5634 5640 5648 5656 5666 5677 5688 5699 5709 5719 5728 5736 5743 5747 5749 5753 5768 5768 5772 5776 5758 5750 5772 5767 5772 5780 5781 5778 5783 5789 5786 5780 5774 5758 5761 5772 5780 5792 5791 5781 5788 5787 5782 5762 5760 5763 5766
5631 5638 5645 5652 5662 5673 5684 5695 5706 5717 5726 5734 5741 5747 5749 5754 5760 5763 5772 5760 5740 5751 5756 5771 5767 5770 5767 5772 5774 5775 5771 5768 5768 5770 5757 5756 5757 5778 5789 5785 5781 5779 5784 5765 5739 5751 5770
5629 5635 5642 5650 5660 5670 5682 5693 5705 5715 5725 5733 5740 5745 5750 5756 5756 5757 5760 5740 5742 5746 5758 5759 5762 5758 5757 5764 5768 5766 5763 5765 5773 5774 5759 5753 5755 5782 5783 5787 5789 5769 5767 5788 5764 5744 5754
5627 5634 5640 5648 5657 5667 5678 5691 5703 5714 5724 5732 5742 5748 5747 5747 5749 5754 5746 5725 5736 5748 5756 5757 5748 5753 5746 5754 5758 5759 5755 5768 5768 5770 5771 5769 5751 5778 5782 5785 5779 5781 5783 5763 5759 5736 5737
5626 5632 5638 5646 5656 5665 5677 5688 5701 5713 5723 5729 5740 5742 5740 5741 5744 5744 5730 5728 5734 5752 5751 5749 5749 5747 5748 5749 5751 5750 5751 5763 5769 5765 5765 5764 5758 5765 5775 5776 5774 5766 5765 5757 5765 5757 5754
5625 5631 5637 5645 5654 5664 5674 5686 5700 5711 5722 5727 5736 5729 5734 5736 5732 5712 5723 5723 5731 5743 5751 5747 5749 5749 5749 5748 5747 5746 5747 5757 5768 5769 5758 5760 5757 5751 5766 5773 5776 5777 5776 5776 5757 5744 5746
5625 5631 5637 5644 5652 5662 5673 5684 5697 5708 5716 5724 5723 5720 5729 5731 5717 5715 5719 5722 5725 5733 5737 5740 5740 5744 5746 5742 5733 5739 5743 5760 5760 5760 5754 5755 5744 5742 5757 5761 5765 5765 5767 5768 5764 5761 5744
5627 5632 5638 5645 5652 5662 5672 5682 5694 5704 5711 5716 5719 5713 5716 5716 5706 5711 5710 5714 5716 5727 5726 5728 5731 5739 5734 5729 5730 5728 5735 5748 5753 5753 5744 5750 5741 5747 5739 5746 5751 5752 5759 5758 5769 5760 5753
5627 5632 5637 5644 5652 5661 5670 5680 5690 5700 5706 5712 5707 5698 5697 5704 5702 5702 5702 5701 5705 5708 5720 5722 5721 5718 5718 5716 5718 5719 5727 5734 5743 5739 5740 5744 5733 5729 5742 5742 5746 5750 5752 5752 5753 5765 5758
5627 5632 5637 5643 5650 5658 5666 5675 5687 5696 5704 5705 5700 5697 5689 5688 5687 5692 5688 5697 5697 5700 5703 5710 5707 5711 5714 5711 5713 5709 5714 5717 5722 5733 5732 5731 5721 5720 5726 5733 5733 5733 5745 5748 5754 5755 5756
5626 5630 5635 5641 5646 5653 5661 5669 5678 5690 5700 5694 5680 5681 5687 5670 5682 5686 5690 5690 5691 5691 5703 5706 5703 5702 5704 5710 5714 5717 5719 5722 5722 5714 5717 5714 5718 5711 5706 5724 5719 5720 5743 5750 5756 5763 5767
5624 5628 5633 5638 5643 5649 5655 5661 5667 5674 5679 5680 5672 5675 5681 5679 5674 5680 5681 5682 5684 5686 5686 5696 5698 5693 5705 5711 5715 5713 5713 5714 5713 5715 5715 5706 5701 5704 5702 5703 5685 5733 5746 5747 5750 5764 5767
5622 5625 5629 5633 5638 5643 5648 5653 5658 5663 5667 5669 5662 5668 5671 5674 5669 5675 5676 5675 5677 5681 5680 5685 5693 5699 5700 5700 5696 5695 5703 5702 5712 5710 5708 5708 5703 5696 5685 5693 5712 5721 5734 5736 5737 5748 5757
5620 5623 5626 5629 5633 5637 5642 5646 5649 5652 5654 5656 5654 5653 5662 5664 5672 5673 5671 5670 5670 5672 5675 5680 5687 5691 5692 5688 5684 5676 5679 5692 5692 5694 5693 5692 5688 5689 5677 5676 5678 5718 5742 5738 5737 5717 5745
5617 5619 5622 5625 5628 5631 5634 5637 5640 5642 5644 5646 5646 5645 5654 5658 5668 5665 5666 5669 5668 5665 5666 5666 5670 5676 5679 5677 5673 5674 5678 5688 5681 5686 5683 5683 5678 5678 5681 5676 5695 5722 5725 5725 5698 5713 5728
5613 5615 5618 5621 5623 5626 5628 5630 5632 5634 5637 5639 5639 5638 5644 5650 5661 5661 5664 5663 5661 5660 5661 5660 5661 5660 5663 5662 5666 5675 5668 5680 5676 5691 5689 5686 5677 5678 5671 5668 5670 5721 5710 5701 5718 5719 5719
5610 5612 5614 5617 5619 5621 5623 5625 5626 5628 5630 5633 5635 5631 5630 5637 5653 5650 5657 5660 5661 5662 5655 5650 5651 5649 5658 5655 5655 5656 5662 5662 5668 5671 5676 5670 5688 5686 5684 5693 5707 5712 5715 5713 5712 5708 5711